{"data":{"norad_id":50179,"epoch":"2026-05-24T17:38:48.734592Z","epoch_age_seconds":88025,"freshness":"FRESH","line1":"1 50179U 21125Z   26144.73528628 -.00000008  00000+0  17581-4 0  9995","line2":"2 50179  53.2146 267.7377 0001086  92.5372 267.5745 15.08839772248085","mean_motion":15.08839772,"eccentricity":0.0001086,"inclination_deg":53.2146,"raan_deg":267.7377,"arg_perigee_deg":92.5372,"mean_anomaly_deg":267.5745,"bstar":1.7581e-5,"rev_number":24808,"period_min":95.437569099285,"perigee_km":538.99280398305,"apogee_km":540.4953677549,"semimajor_km":6917.881085869,"source":"CELESTRAK","updated_at":"2026-05-25T13:38:16.866727Z"}}